{"data":{"norad_id":68471,"intl_designator":"2026-067BH","name":"LEMUR-2-DELOITTE-3","alt_names":[],"object_type":"PAYLOAD","status":"ACTIVE","operator":null,"country":"US","launch_date":"2026-03-30","launch_site_code":"AFWTR","launch_vehicle":null,"mission":null,"orbit_class":"UNKNOWN","rcs_meters":null,"size_class":null,"mass_kg":null,"dimensions":null,"purposes":[],"wikipedia_slug":null,"has_3d_model":false,"image_url":null,"decayed_at":null,"tle_current":{"epoch":"2026-05-24T20:43:59.928384Z","epoch_age_seconds":77080,"freshness":"FRESH","line1":"1 68471U 26067BH  26144.86388806  .00004658  00000+0  47297-3 0  9995","line2":"2 68471  97.7563 103.4137 0005364 114.5091 245.6687 14.91303160  8254","mean_motion":14.9130316,"eccentricity":0.0005364,"inclination_deg":97.7563,"raan_deg":103.4137,"arg_perigee_deg":114.5091,"mean_anomaly_deg":245.6687,"bstar":0.00047297,"rev_number":825,"period_min":96.559843673905,"perigee_km":590.13130822916,"apogee_km":597.61087851173,"semimajor_km":6972.0080933704,"source":"CELESTRAK","updated_at":"2026-05-25T13:38:07.848753Z"}}}